Flag for Greece

Past Weather in Ios, Greece — Yesterday and Last 2 Weeks

Now
68 °F

Mild.


Feels Like: 68 °F
Forecast: 78 / 73 °F
Wind: 6 mph from North

Location: Paros Community Airport
Current Time: Sep 23, 2020 at 12:43:45 am
Latest Report: Sep 22, 2020 at 11:50 pm
Visibility: N/A
Pressure30.04 "Hg
Humidity: 78%
Dew Point: 61 °F
Location of IosLocation

Past Weather in Ios — Graph

°F

Ios Temperature Yesterday

Maximum temperature yesterday: 77 °F (at 1:50 pm)
Minimum temperature yesterday: 68 °F (at 10:50 pm)
Average temperature yesterday: 72 °F

High & Low Weather Summary for the Past Weeks

 TemperatureHumidityPressure
High84 °F (Sep 17, 12:50 pm)100% (Sep 19, 4:50 am)30.04 "Hg (Sep 19, 4:50 am)
Low66 °F (Sep 19, 7:20 am)48% (Sep 17, 12:50 pm)29.74 "Hg (Sep 11, 8:50 am)
Average75 °F73%29.92 "Hg
* Reported Sep 7 11:50 pm — Sep 22 11:20 pm, Ios. Weather by CustomWeather, © 2020

Note: Actual official high and low records may vary slightly from our data, if they occured in-between our weather recording intervals... More about our weather records

Ios Weather History for the Previous 24 Hours

Scroll right to see more
 ConditionsComfort  
Time TempWeatherWind HumidityBarometerVisibility
11:20 pm
Tue, Sep 22
68 °FMild.5 mph73%30.04 "HgN/A
10:50 pm68 °FMild.6 mph78%30.04 "HgN/A
10:20 pm70 °FMild.6 mph73%30.04 "HgN/A
9:20 pm70 °FMild.6 mph73%30.04 "HgN/A
8:50 pm72 °FMild.6 mph69%30.04 "HgN/A
8:20 pm72 °FMild.7 mph69%30.01 "HgN/A
7:50 pm72 °FMild.9 mph69%30.01 "HgN/A
7:20 pm72 °FMild.10 mph69%30.01 "HgN/A
6:50 pm73 °FMild.13 mph65%30.01 "HgN/A
6:20 pm73 °FMild.13 mph65%30.01 "HgN/A
5:50 pm75 °FMild.14 mph61%30.01 "HgN/A
5:20 pm75 °FMild.14 mph61%30.04 "HgN/A
4:50 pm75 °FPassing clouds.14 mph61%30.04 "HgN/A
3:50 pm77 °FPassing clouds.17 mph57%30.04 "HgN/A
2:50 pm77 °FPassing clouds.20 mph57%30.04 "HgN/A
1:50 pm77 °FPassing clouds.21 mph61%30.04 "HgN/A
12:50 pm75 °FPassing clouds.21 mph65%30.04 "HgN/A
11:50 am75 °FPassing clouds.20 mph65%30.04 "HgN/A
10:50 am75 °FPassing clouds.18 mph69%30.04 "HgN/A
9:50 am73 °FPassing clouds.17 mph69%30.04 "HgN/A
8:50 am73 °FPassing clouds.17 mph69%30.01 "HgN/A
7:50 am72 °FPassing clouds.17 mph73%30.01 "HgN/A
7:20 am72 °FMild.16 mph73%30.01 "HgN/A
6:50 am70 °FMild.15 mph78%30.01 "HgN/A
6:20 am72 °FMild.18 mph73%29.98 "HgN/A
5:50 am72 °FMild.18 mph73%29.98 "HgN/A
5:20 am72 °FMild.16 mph73%29.98 "HgN/A
4:50 am72 °FMild.17 mph78%29.98 "HgN/A
4:20 am72 °FMild.18 mph73%29.98 "HgN/A
3:50 am72 °FMild.20 mph73%29.98 "HgN/A
3:20 am72 °FMild.15 mph73%30.01 "HgN/A
2:50 am72 °FMild.14 mph73%30.01 "HgN/A
2:20 am72 °FMild.12 mph73%30.01 "HgN/A
1:50 am72 °FMild.12 mph73%30.01 "HgN/A
1:20 am72 °FMild.13 mph73%30.01 "HgN/A
12:50 am72 °FMild.13 mph73%30.01 "HgN/A
12:20 am72 °FMild.14 mph73%30.01 "HgN/A
Weather by CustomWeather, © 2020

See weather overview